| time (UTC) | temp C | wind direction | speed KPH | gust KPH | rain 1hr cm | rain 24hr cm | rain mn cm | humidity % | barometer mb |
| 20260506180041 | 26 | 86 | 3.2 | 11.3 | 0.00 | 0.00 | 0.00 | 90 | 1011.1 |
| 20260506174544 | 26 | 121 | 1.6 | 9.7 | 0.00 | 0.00 | 0.00 | 91 | 1011.0 |
| 20260506173038 | 26 | 105 | 1.6 | 6.4 | 0.00 | 0.00 | 0.00 | 91 | 1011.1 |
| 20260506171542 | 26 | 117 | 3.2 | 9.7 | 0.00 | 0.00 | 0.00 | 91 | 1011.0 |
| 20260506170100 | 26 | 127 | 1.6 | 8.0 | 0.00 | 0.00 | 0.00 | 90 | 1011.0 |
| 20260506164538 | 26 | 94 | 1.6 | 9.7 | 0.00 | 0.00 | 0.00 | 89 | 1011.2 |
| 20260506163039 | 26 | 148 | 4.8 | 11.3 | 0.00 | 0.00 | 0.00 | 90 | 1011.0 |
| 20260506161544 | 26 | 108 | 3.2 | 14.5 | 0.00 | 0.00 | 0.00 | 91 | 1010.5 |
| 20260506160040 | 26 | 17 | 1.6 | 12.9 | 0.00 | 0.00 | 0.00 | 92 | 1010.5 |
| 20260506154544 | 26 | 158 | 3.2 | 14.5 | 0.00 | 0.00 | 0.00 | 92 | 1010.2 |
| 20260506153038 | 26 | 129 | 4.8 | 12.9 | 0.00 | 0.00 | 0.00 | 93 | 1010.0 |
| 20260506151543 | 25 | 153 | 3.2 | 11.3 | 0.00 | 0.00 | 0.00 | 94 | 1010.1 |
| 20260506150037 | 25 | 78 | 4.8 | 11.3 | 0.00 | 0.00 | 0.00 | 94 | 1009.9 |
| 20260506144548 | 25 | 96 | 3.2 | 11.3 | 0.00 | 0.00 | 0.00 | 95 | 1010.2 |
| 20260506143041 | 25 | 109 | 1.6 | 9.7 | 0.00 | 0.00 | 0.00 | 95 | 1010.2 |
| 20260506141540 | 25 | 132 | 1.6 | 6.4 | 0.00 | 0.00 | 0.00 | 95 | 1010.1 |
| 20260506140040 | 25 | 81 | 1.6 | 8.0 | 0.00 | 0.00 | 0.00 | 95 | 1009.9 |
| 20260506134538 | 25 | 129 | 1.6 | 11.3 | 0.00 | 0.00 | 0.00 | 95 | 1009.6 |
| 20260506133037 | 25 | 0 | 1.6 | 6.4 | 0.00 | 0.00 | 0.00 | 95 | 1009.7 |
| 20260506131537 | 25 | 52 | 1.6 | 9.7 | 0.00 | 0.00 | 0.00 | 96 | 1009.5 |
| 20260506130045 | 25 | 117 | 1.6 | 9.7 | 0.00 | 0.00 | 0.00 | 96 | 1009.5 |
| 20260506124543 | 24 | 111 | 0.0 | 6.4 | 0.00 | 0.00 | 0.00 | 96 | 1009.6 |
| 20260506123038 | 24 | 72 | 0.0 | 6.4 | 0.00 | 0.00 | 0.00 | 96 | 1009.6 |
| 20260506121537 | 24 | 61 | 1.6 | 6.4 | 0.00 | 0.00 | 0.00 | 96 | 1009.5 |
| 20260506120042 | 24 | 199 | 1.6 | 8.0 | 0.00 | 0.00 | 0.00 | 96 | 1009.3 |
| 20260506114538 | 24 | 37 | 0.0 | 6.4 | 0.00 | 0.00 | 0.00 | 96 | 1009.1 |
| 20260506113042 | 24 | 169 | 3.2 | 8.0 | 0.00 | 0.00 | 0.00 | 96 | 1009.3 |
| 20260506111540 | 24 | 125 | 1.6 | 6.4 | 0.00 | 0.00 | 0.00 | 97 | 1009.2 |
| 20260506110038 | 24 | 119 | 0.0 | 4.8 | 0.00 | 0.00 | 0.00 | 96 | 1009.1 |
| 20260506104540 | 24 | 117 | 0.0 | 4.8 | 0.00 | 0.00 | 0.00 | 97 | 1009.1 |
| 20260506103047 | 24 | 92 | 1.6 | 4.8 | 0.00 | 0.00 | 0.00 | 97 | 1008.8 |
| 20260506101544 | 24 | 0 | 0.0 | 4.8 | 0.00 | 0.00 | 0.00 | 97 | 1008.8 |
| 20260506100041 | 24 | 67 | 0.0 | 6.4 | 0.00 | 0.00 | 0.00 | 96 | 1008.7 |
| 20260506094542 | 24 | 60 | 3.2 | 8.0 | 0.00 | 0.00 | 0.00 | 96 | 1008.6 |
| 20260506093038 | 23 | 115 | 1.6 | 4.8 | 0.00 | 0.00 | 0.00 | 96 | 1008.5 |
| 20260506091538 | 23 | 108 | 1.6 | 3.2 | 0.00 | 0.00 | 0.00 | 96 | 1008.5 |
| 20260506090049 | 24 | 96 | 0.0 | 8.0 | 0.00 | 0.00 | 0.00 | 96 | 1008.6 |
| 20260506084548 | 24 | 124 | 1.6 | 8.0 | 0.00 | 0.00 | 0.00 | 96 | 1008.7 |
| 20260506083043 | 24 | 146 | 1.6 | 9.7 | 0.00 | 0.00 | 0.00 | 96 | 1008.8 |
| 20260506081542 | 24 | 115 | 0.0 | 4.8 | 0.00 | 0.00 | 0.00 | 96 | 1008.9 |
| 20260506073053 | 24 | 149 | 1.6 | 8.0 | 0.00 | 0.00 | 0.00 | 95 | 1009.5 |
| 20260506071541 | 24 | 119 | 3.2 | 9.7 | 0.00 | 0.00 | 0.00 | 95 | 1009.8 |
| 20260506061552 | 24 | 57 | 1.6 | 12.9 | 0.00 | 0.00 | 0.00 | 95 | 1009.6 |
| 20260506044546 | 24 | 123 | 6.4 | 14.5 | 0.00 | 0.00 | 0.00 | 93 | 1009.7 |
| 20260506043041 | 25 | 25 | 4.8 | 17.7 | 0.00 | 0.00 | 0.00 | 93 | 1009.7 |
| 20260506041544 | 25 | 168 | 6.4 | 14.5 | 0.00 | 0.00 | 0.00 | 93 | 1009.6 |
| 20260506040044 | 25 | 126 | 3.2 | 16.1 | 0.00 | 0.00 | 0.00 | 93 | 1009.8 |
| 20260506034542 | 25 | 101 | 4.8 | 16.1 | 0.00 | 0.00 | 0.00 | 93 | 1009.6 |
| 20260506033043 | 25 | 39 | 3.2 | 14.5 | 0.00 | 0.00 | 0.00 | 93 | 1009.6 |
| 20260506031546 | 25 | 112 | 3.2 | 14.5 | 0.00 | 0.00 | 0.00 | 93 | 1009.5 |
| 20260506030045 | 25 | 41 | 3.2 | 14.5 | 0.00 | 0.00 | 0.00 | 93 | 1009.3 |
| 20260506024553 | 25 | 184 | 6.4 | 12.9 | 0.00 | 0.00 | 0.00 | 93 | 1009.1 |
| 20260506023041 | 25 | 103 | 3.2 | 11.3 | 0.00 | 0.00 | 0.00 | 93 | 1008.8 |
| 20260506021551 | 25 | 150 | 4.8 | 16.1 | 0.00 | 0.00 | 0.00 | 93 | 1008.8 |
| 20260506020037 | 25 | 91 | 4.8 | 12.9 | 0.00 | 0.00 | 0.00 | 93 | 1008.8 |
| 20260506014544 | 25 | 124 | 6.4 | 16.1 | 0.00 | 0.00 | 0.00 | 93 | 1008.5 |
| 20260506013053 | 25 | 0 | 4.8 | 19.3 | 0.00 | 0.00 | 0.00 | 93 | 1008.3 |
| 20260506011552 | 25 | 87 | 3.2 | 11.3 | 0.00 | 0.00 | 0.00 | 93 | 1008.1 |
| 20260506010041 | 25 | 137 | 3.2 | 14.5 | 0.00 | 0.00 | 0.00 | 92 | 1008.1 |
| 20260506004538 | 25 | 145 | 4.8 | 14.5 | 0.00 | 0.00 | 0.00 | 92 | 1007.7 |
| 20260506003038 | 25 | 61 | 4.8 | 11.3 | 0.00 | 0.00 | 0.00 | 91 | 1007.7 |
| 20260506001542 | 25 | 86 | 4.8 | 16.1 | 0.00 | 0.00 | 0.00 | 91 | 1008.0 |
| 20260506000046 | 25 | 99 | 4.8 | 9.7 | 0.00 | 0.00 | 0.00 | 90 | 1008.0 |
| 20260505234542 | 25 | 108 | 3.2 | 14.5 | 0.00 | 0.00 | 0.00 | 90 | 1007.9 |
| 20260505233041 | 25 | 105 | 4.8 | 12.9 | 0.00 | 0.00 | 0.00 | 90 | 1008.1 |
| 20260505231550 | 25 | 173 | 6.4 | 16.1 | 0.00 | 0.00 | 0.00 | 90 | 1008.1 |
| 20260505230039 | 26 | 100 | 4.8 | 16.1 | 0.00 | 0.00 | 0.00 | 89 | 1008.2 |
| 20260505224538 | 26 | 41 | 6.4 | 14.5 | 0.00 | 0.00 | 0.00 | 88 | 1008.2 |
| 20260505223043 | 26 | 161 | 4.8 | 16.1 | 0.00 | 0.00 | 0.00 | 88 | 1008.3 |
| 20260505221539 | 26 | 115 | 1.6 | 11.3 | 0.00 | 0.00 | 0.00 | 88 | 1008.3 |
| 20260505220043 | 26 | 212 | 4.8 | 16.1 | 0.00 | 0.00 | 0.00 | 87 | 1008.5 |
| 20260505214600 | 27 | 94 | 6.4 | 19.3 | 0.00 | 0.00 | 0.00 | 85 | 1008.6 |
| 20260505213039 | 27 | 99 | 6.4 | 16.1 | 0.00 | 0.00 | 0.00 | 84 | 1008.7 |
| 20260505211537 | 27 | 121 | 1.6 | 17.7 | 0.00 | 0.00 | 0.00 | 86 | 1009.0 |
| 20260505210039 | 27 | 119 | 8.0 | 20.9 | 0.00 | 0.00 | 0.00 | 84 | 1008.9 |
| 20260505204543 | 27 | 67 | 3.2 | 19.3 | 0.00 | 0.00 | 0.00 | 85 | 1009.1 |
| 20260505203039 | 27 | 146 | 4.8 | 20.9 | 0.00 | 0.00 | 0.00 | 85 | 1009.3 |
| 20260505201538 | 27 | 120 | 8.0 | 19.3 | 0.00 | 0.00 | 0.00 | 85 | 1009.5 |
| 20260505200044 | 27 | 113 | 8.0 | 16.1 | 0.00 | 0.00 | 0.00 | 86 | 1009.6 |
| 20260505194537 | 27 | 129 | 8.0 | 20.9 | 0.00 | 0.00 | 0.00 | 84 | 1009.8 |
| 20260505193036 | 27 | 98 | 6.4 | 22.5 | 0.00 | 0.00 | 0.00 | 84 | 1009.9 |
| 20260505191544 | 27 | 111 | 6.4 | 20.9 | 0.00 | 0.00 | 0.00 | 84 | 1009.9 |
| 20260505190041 | 27 | 198 | 6.4 | 19.3 | 0.00 | 0.00 | 0.00 | 85 | 1010.0 |
| 20260505184538 | 27 | 133 | 8.0 | 20.9 | 0.00 | 0.00 | 0.00 | 84 | 1010.1 |
| 20260505183053 | 27 | 146 | 8.0 | 24.1 | 0.00 | 0.00 | 0.00 | 85 | 1010.2 |
| 20260505181541 | 27 | 122 | 8.0 | 25.7 | 0.00 | 0.00 | 0.00 | 86 | 1010.1 |